This is the latest recevied weather packets stored in our database for station/object N3DOU-1. If no packets are shown the sender has not sent any weather packets the latest 10 day(s).
| Time | Temp. | Humidity | Pressure | Rain* | Wind** | Luminosity | Snow |
|---|---|---|---|---|---|---|---|
| 1777639284 | 11.67° C | 69% | 1015.4 hPa | 0 mm | - | - | - |
| 1777638383 | 11.11° C | 69% | 1015.3 hPa | 0 mm | - | - | - |
| 1777637485 | 10.56° C | 72% | 1015.4 hPa | 0 mm | - | - | - |
| 1777636584 | 10.56° C | 73% | 1015.2 hPa | 0 mm | - | - | - |
| 1777634784 | 8.89° C | 78% | 1015.1 hPa | 0 mm | - | - | - |
| 1777633884 | 7.78° C | 79% | 1015 hPa | 0 mm | - | - | - |
| 1777632984 | 7.78° C | 79% | 1014.8 hPa | 0 mm | - | - | - |
| 1777632083 | 7.22° C | 79% | 1014.7 hPa | 0 mm | - | - | - |
| 1777631182 | 7.22° C | 79% | 1014.6 hPa | 0 mm | - | - | - |
| 1777630285 | 7.22° C | 79% | 1014.5 hPa | 0 mm | - | - | - |
| 1777629383 | 7.78° C | 78% | 1014.6 hPa | 0 mm | - | - | - |
| 1777628483 | 8.33° C | 77% | 1014.5 hPa | 0 mm | - | - | - |
| 1777627583 | 8.33° C | 76% | 1014.5 hPa | 0 mm | - | - | - |
| 1777626683 | 8.33° C | 76% | 1014.4 hPa | 0 mm | - | - | - |
| 1777625784 | 8.89° C | 75% | 1014.5 hPa | 0 mm | - | - | - |
| 1777624884 | 8.89° C | 74% | 1014.4 hPa | 0 mm | - | - | - |
| 1777623984 | 8.89° C | 74% | 1014.3 hPa | 0 mm | - | - | - |
| 1777623083 | 9.44° C | 74% | 1014.1 hPa | 0 mm | - | - | - |
| 1777622182 | 9.44° C | 74% | 1013.9 hPa | 0 mm | - | - | - |
| 1777621283 | 9.44° C | 73% | 1013.9 hPa | 0 mm | - | - | - |
| 1777620383 | 9.44° C | 72% | 1013.8 hPa | 0 mm | - | - | - |
| 1777619483 | 9.44° C | 72% | 1013.7 hPa | 0 mm | - | - | - |
| 1777617686 | 10° C | 72% | 1013.6 hPa | 0 mm | - | - | - |
| 1777616784 | 10° C | 71% | 1013.6 hPa | 0 mm | - | - | - |
| 1777615884 | 10° C | 71% | 1013.7 hPa | 0 mm | - | - | - |
* Rain latest hour (hover to see other rain measurements)
** Current wind speed in m/s (hover to see current wind gust speed)